[[{"header":{"parameterUnit":"m.s-1","parameterCategory":1,"la1":30.2991,"la2":30.254,"lo1":-89.0895,"lo2":-89.0444,"dy":0.0017,"dx":0.0017,"nx":28,"ny":28,"refTime":"2025-05-16T09:00:00:Z","depth":0,"parameterNumber":2,"parameterNumberName":"U-component_of_WINDS"},"data":[0,0,0,0,0,0,0,0,0,0,0,0,0,0,0,0,0,0,0,0,0,0,0,0,0,0,0,0,0,0,0,0,0,0,0,0,0,0,0,0,0,0,0,0,0,0,0,0,0,0,0,0,0,0,0,0,0,0,2.0739,2.074,0,2.0768,2.0768,2.0768,2.0731,2.073,2.0728,2.0727,2.0755,2.0757,2.0759,0,0,0,0,0,0,0,0,0,0,0,0,0,2.0651,2.0653,2.0739,2.074,2.074,2.0768,2.0768,2.0768,2.0731,2.073,2.0728,2.0726,2.0754,2.0757,2.0759,0,0,0,0,0,0,0,0,0,0,0,0,0,2.0685,2.0654,2.0739,2.0725,2.0724,2.0768,2.0768,2.0769,2.0732,2.073,2.0728,2.0726,2.0754,2.0757,2.0759,2.0818,0,0,2.0769,2.077,0,0,0,0,0,0,0,0,2.0684,2.0689,2.0727,2.0726,2.0725,2.0744,2.0747,2.0785,2.0732,2.0729,2.0727,2.0725,2.0753,2.0756,2.0766,2.082,2.0821,2.0769,2.0771,2.0772,2.0773,0,0,0,0,0,0,0,2.0681,2.0687,2.0751,2.0727,2.0726,2.0716,2.0719,2.0754,2.0752,2.0729,2.0726,2.073,2.0752,2.0763,2.0766,2.0821,2.0769,2.0771,2.0773,2.0775,2.0923,2.0925,0,0,0,0,0,0,2.0681,2.0686,2.075,2.0751,2.0699,2.072,2.0723,2.074,2.0751,2.0751,2.0732,2.0728,2.0759,2.0762,2.0767,2.0835,2.0772,2.0775,2.0777,2.0921,2.0924,2.0926,0,0,0,0,0,0,2.0679,2.0687,2.0749,2.0718,2.0725,2.0723,2.0743,2.0741,2.0752,2.0754,2.0753,2.0743,2.0757,2.0763,2.0805,2.0835,2.0776,2.0779,2.0919,2.0922,2.0925,2.0973,0,0,0,0,0,0,2.0677,2.0686,2.0709,2.0719,2.0727,2.0788,2.0745,2.0743,2.0757,2.0753,2.0764,2.0764,2.0756,2.0801,2.0808,2.0838,2.0781,2.0916,2.092,2.0924,2.0968,2.0977,2.0985,0,0,0,0,0,2.0674,2.0722,2.0711,2.0719,2.0755,2.0789,2.0794,2.0784,2.076,2.0783,2.0783,2.0764,2.0831,2.0806,2.0814,2.0845,2.0914,2.0919,2.0923,2.0965,2.0975,2.0985,0,0,0,0,0,0,2.0716,2.0723,2.0711,2.0764,2.0776,2.0783,2.0811,2.0796,2.0815,2.081,2.0797,2.08,2.0845,2.085,2.0821,2.0902,2.0868,2.0875,2.0897,2.0907,2.0915,2.0913,2.0784,0,0,0,0,0,2.0732,2.0759,2.0764,2.081,2.0817,2.0813,2.0827,2.0819,2.0831,2.0836,2.084,2.0852,2.0876,2.0892,2.0914,2.0969,2.097,2.0995,2.1003,2.1009,2.1015,2.1042,2.1053,2.0942,2.0942,2.0942,0,0,2.0764,2.0771,2.079,2.0819,2.0827,2.0855,2.0818,2.0849,2.0869,2.0841,2.0881,2.0885,2.0897,2.0946,2.0968,2.0951,2.1046,2.1016,2.1021,2.1023,2.1048,2.1059,2.1068,2.0945,2.0945,2.0944,0,0,2.0837,2.0846,2.0885,2.0894,2.0908,2.0905,2.0914,2.0923,2.0924,2.0964,2.0943,2.0967,2.1009,2.1018,2.1028,2.1104,2.1086,2.1111,2.1153,2.118,2.1189,2.1197,2.1222,2.1231,2.1117,2.1117,2.1117,0,2.0875,2.0917,2.0906,2.0939,2.0951,2.0927,2.0965,2.0975,2.0995,2.1004,2.0985,2.1036,2.1043,2.1093,2.1111,2.1121,2.113,2.111,2.1189,2.1196,2.1203,2.1227,2.1237,2.112,2.112,2.112,2.1119,0,2.0963,2.0992,2.1021,2.1041,2.1057,2.1093,2.1086,2.1104,2.1093,2.1092,2.1133,2.114,2.1163,2.1174,2.1165,2.1222,2.1211,2.1191,2.1157,2.1217,2.1239,2.1248,2.1124,2.1123,2.1122,2.1122,0,0,2.1063,2.1076,2.1087,2.1094,2.1107,2.1129,2.1163,2.1185,2.1199,2.1214,2.1241,2.1277,2.1258,2.1269,2.1261,2.1285,2.1341,2.1261,2.1261,2.1274,2.1403,2.1417,2.1428,2.133,2.1332,2.1333,2.1401,0,2.1134,2.1193,2.1183,2.1239,2.1265,2.1242,2.1271,2.1282,2.1281,2.1302,2.1302,2.1327,2.1301,2.1307,2.133,2.133,2.1367,2.1325,2.1354,2.1355,2.135,2.144,2.1455,2.1519,2.141,2.1412,2.1413,0,2.1225,2.1243,2.1302,2.1309,2.1319,2.1346,2.1364,2.1386,2.1397,2.1394,2.1407,2.1394,2.1426,2.1393,2.1436,2.1408,2.1419,2.1421,2.1423,2.1424,2.1386,2.1442,2.1539,2.1548,2.1427,2.1426,2.1425,0,2.129,2.1329,2.1368,2.1376,2.1386,2.1405,2.141,2.1419,2.1432,2.1449,2.1457,2.1477,2.1488,2.1503,2.1495,2.1471,2.1539,2.1505,2.1537,2.1537,2.1551,2.155,2.165,2.1562,2.1561,2.1561,2.1561,0,2.137,2.1406,2.1397,2.1421,2.1461,2.145,2.1489,2.1491,2.1499,2.1523,2.1504,2.1527,2.1515,2.1537,2.1531,2.1566,2.1572,2.157,2.1568,2.1571,2.1571,2.1577,2.1572,2.1564,2.1563,2.1563,2.1562,0,2.1449,2.1444,2.1485,2.1492,2.1494,2.1523,2.1527,2.1549,2.1548,2.1577,2.1584,2.1581,2.1604,2.1598,2.1624,2.162,2.1665,2.1658,2.1661,2.1659,2.169,2.1687,2.1796,2.1809,2.1714,2.1715,2.1716,0,2.1499,2.1526,2.1535,2.1549,2.1556,2.1579,2.1593,2.1583,2.1597,2.1611,2.1631,2.1654,2.1671,2.171,2.1709,2.1729,2.1721,2.1758,2.1724,2.1725,2.1719,2.1717,2.1719,2.1764,2.1765,2.1766,2.1767,0,2.1588,2.1584,2.1604,2.1623,2.164,2.1654,2.1667,2.168,2.1671,2.1688,2.1712,2.1725,2.1752,2.1773,2.1791,2.1795,2.1779,2.1778,2.1786,2.1789,2.1789,2.1787,2.1678,2.1775,2.1774,2.1774,2.1773,2.1773,2.1652,2.1675,2.1684,2.1707,2.1715,2.1728,2.1748,2.1749,2.1769,2.1789,2.1782,2.1809,2.1818,2.1841,2.1847,2.1868,2.1853,2.1866,2.1868,2.1871,2.1874,2.1787,2.1871,2.1871,2.1871,2.187,2.187,0,2.1739,2.1744,2.1765,2.1783,2.18,2.1784,2.1798,2.1813,2.1837,2.1847,2.1864,2.1891,2.1912,2.1913,2.1933,2.1949,2.1942,2.1954,2.1952,2.1952,2.1887,2.1877,2.1959,2.1959,2.1959,2.1959,2.1959,2.1959,2.1786,2.1822,2.1819,2.186,2.1864,2.189,2.1899,2.191,2.1917,2.1948,2.1966,2.1966,2.1973,2.1992,2.201,2.201,2.2017,2.2031,2.2028,2.1966,2.1957,2.1949,2.194,2.2034,2.2034,2.2092,2.2093,2.2093]},{"header":{"parameterUnit":"m.s-1","parameterCategory":1,"la1":30.2991,"la2":30.254,"lo1":-89.0895,"lo2":-89.0444,"dy":0.0017,"dx":0.0017,"nx":28,"ny":28,"refTime":"2025-05-16T09:00:00:Z","depth":0,"parameterNumber":3,"parameterNumberName":"V-component_of_WINDS"},"data":[0,0,0,0,0,0,0,0,0,0,0,0,0,0,0,0,0,0,0,0,0,0,0,0,0,0,0,0,0,0,0,0,0,0,0,0,0,0,0,0,0,0,0,0,0,0,0,0,0,0,0,0,0,0,0,0,0,0,4.7643,4.7644,0,4.7739,4.774,4.7741,4.7693,4.7691,4.7688,4.7686,4.7779,4.7784,4.7788,0,0,0,0,0,0,0,0,0,0,0,0,0,4.7412,4.7416,4.7643,4.7644,4.7645,4.7739,4.774,4.7742,4.7694,4.7691,4.7688,4.7685,4.7777,4.7783,4.7789,0,0,0,0,0,0,0,0,0,0,0,0,0,4.751,4.7418,4.7643,4.7633,4.7633,4.7739,4.774,4.7742,4.7694,4.7691,4.7687,4.7683,4.7776,4.7783,4.779,4.7909,0,0,4.7812,4.7815,0,0,0,0,0,0,0,0,4.7505,4.7519,4.7633,4.7634,4.7634,4.77,4.7693,4.7798,4.7695,4.7671,4.7686,4.7681,4.7756,4.7764,4.779,4.7913,4.7917,4.7812,4.7817,4.782,4.7822,0,0,0,0,0,0,0,4.7498,4.7514,4.7681,4.7635,4.7635,4.7622,4.7632,4.7713,4.7733,4.7673,4.7669,4.7682,4.7755,4.7783,4.7792,4.7919,4.7812,4.7819,4.7823,4.7826,4.8144,4.8148,0,0,0,0,0,0,4.7493,4.7509,4.7678,4.7684,4.7559,4.7629,4.764,4.7683,4.7732,4.7736,4.7685,4.7679,4.7773,4.7784,4.7795,4.7939,4.782,4.7826,4.7831,4.814,4.8145,4.815,0,0,0,0,0,0,4.7488,4.7508,4.7674,4.7596,4.7616,4.7637,4.7685,4.7687,4.7715,4.7741,4.7744,4.7711,4.777,4.7785,4.7881,4.7941,4.783,4.7836,4.8135,4.8142,4.8147,4.8226,0,0,0,0,0,0,4.7481,4.7507,4.7554,4.7597,4.762,4.7761,4.7689,4.7691,4.7728,4.7722,4.7766,4.777,4.7769,4.7871,4.7889,4.7949,4.7842,4.813,4.8138,4.8145,4.8219,4.8235,4.8248,0,0,0,0,0,4.7473,4.7571,4.7556,4.7577,4.768,4.7764,4.7777,4.7775,4.7733,4.778,4.7797,4.7768,4.7932,4.7881,4.7901,4.7964,4.8126,4.8136,4.8145,4.8212,4.8231,4.8248,0,0,0,0,0,0,4.7532,4.7576,4.7561,4.7676,4.7717,4.7756,4.7815,4.7796,4.7848,4.784,4.7834,4.7844,4.7944,4.7963,4.7907,4.8082,4.8022,4.8036,4.8066,4.8085,4.81,4.8093,4.7848,0,0,0,0,0,4.7559,4.7626,4.766,4.7758,4.7779,4.7794,4.783,4.7826,4.7867,4.7884,4.7907,4.7947,4.8007,4.8047,4.8104,4.822,4.8229,4.8274,4.8288,4.83,4.8313,4.8376,4.8396,4.818,4.818,4.818,0,0,4.7614,4.7646,4.7689,4.777,4.7802,4.7869,4.7809,4.7883,4.7932,4.7894,4.7988,4.8006,4.805,4.8157,4.8206,4.8176,4.8374,4.8312,4.8322,4.8327,4.8387,4.8408,4.8426,4.8186,4.8185,4.8184,0,0,4.775,4.7781,4.7867,4.7899,4.7948,4.7957,4.7977,4.802,4.8031,4.8125,4.8098,4.8155,4.8259,4.8292,4.8322,4.8469,4.8445,4.8487,4.8565,4.8627,4.8644,4.8659,4.8712,4.8731,4.8499,4.8499,4.8499,0,4.7812,4.7915,4.7912,4.7989,4.8026,4.7996,4.8081,4.8112,4.8176,4.8201,4.8168,4.8298,4.8325,4.844,4.8476,4.8501,4.8523,4.8483,4.8642,4.8657,4.8671,4.8721,4.8741,4.8504,4.8504,4.8503,4.8503,0,4.7989,4.806,4.8123,4.8188,4.8231,4.8312,4.832,4.8364,4.8355,4.8366,4.8462,4.8493,4.8556,4.8582,4.8574,4.8696,4.8676,4.8643,4.8582,4.8697,4.8744,4.8763,4.8511,4.851,4.8508,4.8507,0,0,4.8165,4.8228,4.8251,4.828,4.8331,4.8386,4.8464,4.8528,4.8565,4.8609,4.8675,4.8763,4.8732,4.8767,4.8761,4.8815,4.893,4.8774,4.8775,4.8803,4.9067,4.9093,4.9115,4.8914,4.8917,4.892,4.9063,0,4.8305,4.8446,4.8445,4.8574,4.864,4.8612,4.868,4.8718,4.873,4.8786,4.8799,4.8863,4.8817,4.8837,4.8889,4.8905,4.8983,4.8894,4.8974,4.8977,4.8965,4.914,4.9168,4.9301,4.9082,4.9085,4.9087,0,4.8488,4.8541,4.8677,4.8719,4.8746,4.8808,4.8866,4.892,4.8961,4.8967,4.9005,4.8991,4.9069,4.9006,4.9113,4.9053,4.9084,4.9097,4.9102,4.911,4.904,4.9154,4.9344,4.9364,4.9116,4.9114,4.9112,0,4.8604,4.8708,4.8804,4.8829,4.888,4.8924,4.8947,4.8985,4.9023,4.9073,4.9097,4.9154,4.9186,4.9229,4.923,4.9184,4.9339,4.9275,4.9345,4.9345,4.9379,4.9378,4.9579,4.9398,4.9398,4.9398,4.9397,0,4.8761,4.8845,4.8857,4.8916,4.9009,4.9006,4.9098,4.9116,4.915,4.9211,4.9188,4.9245,4.9243,4.93,4.93,4.9389,4.9403,4.9409,4.9408,4.9412,4.9411,4.9433,4.9424,4.9403,4.9402,4.9401,4.94,0,4.8907,4.8918,4.902,4.906,4.9072,4.9139,4.9173,4.9228,4.9238,4.9315,4.9332,4.9348,4.9414,4.9419,4.9495,4.9495,4.9603,4.9592,4.959,4.9589,4.9658,4.9652,4.9881,4.9911,4.971,4.9712,4.9714,0,4.9007,4.9072,4.912,4.916,4.9186,4.925,4.9289,4.9288,4.9329,4.9381,4.943,4.9494,4.9545,4.9652,4.9669,4.9726,4.9717,4.9793,4.9725,4.9727,4.9719,4.9716,4.9722,4.9807,4.9809,4.9811,4.9812,0,4.9184,4.9187,4.9245,4.9306,4.9354,4.9401,4.9444,4.9478,4.9482,4.9529,4.9597,4.9637,4.9715,4.9779,4.9835,4.9856,4.9835,4.9833,4.9852,4.9857,4.9854,4.9858,4.9627,4.9828,4.9827,4.9825,4.9825,4.9824,4.9311,4.9367,4.941,4.9476,4.9509,4.9551,4.9605,4.9622,4.968,4.9745,4.974,4.9816,4.9854,4.9928,4.9953,5.0011,4.9985,5.0013,5.002,5.0027,5.0035,4.9844,5.0021,5.002,5.002,5.002,5.0019,0,4.9488,4.9514,4.9574,4.9638,4.9689,4.9666,4.9713,4.9757,4.9824,4.9863,4.9915,4.9993,5.0054,5.0076,5.0136,5.0178,5.0169,5.0193,5.0191,5.0196,5.0054,5.0032,5.0199,5.0199,5.0199,5.0199,5.0199,5.0199,4.9586,4.968,4.9688,4.9798,4.9822,4.9898,4.9927,4.9965,4.9996,5.0085,5.0137,5.0151,5.0183,5.0244,5.0299,5.0304,5.0327,5.0356,5.0356,5.0224,5.0206,5.0189,5.0168,5.0361,5.0361,5.0493,5.0495,5.0496]}]]